Regional Weather Roundup
Issued by NWS

Home | Current Version | Previous Version | Graphics & Text | Print | Product List | Glossary On
Versions: 1 2 3 4 5 6 7 8 9 10 11 12 13 14 15 16 17 18 19 20 21 22 23 24 25 26 27 28 29 30 31 32 33 34 35 36 37 38 39 40 41 42 43 44 45 46 47 48 49 50
000
ASUS44 KMEG 301110
RWRTN
TENNESSEE HOURLY STATE WEATHER ROUNDUP
NATIONAL WEATHER SERVICE MEMPHIS TN
600 AM CDT SAT MAY 30 2015

TNZ002-004-019-021-049-052-054-088>092-301200-
WEST TENNESSEE

CITY           SKY/WX    TMP DP  RH WIND       PRES   REMARKS
MEMPHIS INTL   LGT RAIN  71  67  87 SW5       29.99R FOG
NWS MEMPHIS      N/A     72 N/A N/A MISG        N/A
JACKSON        PTCLDY    71  66  84 S7        30.01R
DYERSBURG      MOCLDY   N/A N/A N/A S3        29.99R
PARIS          CLEAR     68  66  94 S8        30.02R
LEXINGTON      CLEAR     70  66  88 SE5       30.03R
$$

TNZ008-025-027-028-033-062-065-066-301200-
NORTH MIDDLE TENNESSEE

CITY           SKY/WX    TMP DP  RH WIND       PRES   REMARKS
NASHVILLE      PTCLDY    69  64  84 S7        30.08S
CLARKSVILLE    PTCLDY    67  65  93 SE5       30.05R
SMYRNA         CLEAR     65  64  96 SE5       30.10R
COOKEVILLE     MOCLDY    70  64  83 S7        30.13R
CROSSVILLE     CLOUDY    68  61  78 S3        30.19R
$$

TNZ061-075-076-078-094-096-097-301200-
SOUTH MIDDLE TENNESSEE

CITY           SKY/WX    TMP DP  RH WIND       PRES   REMARKS
FAYETTEVILLE   CLEAR    N/A N/A N/A MISG      30.12R
TULLAHOMA      CLEAR     64  63  94 CALM      30.13S
WINCHESTER     CLEAR     68  63  83 S9        30.14R
MCMINNVILLE    PTCLDY    66  66 100 CALM      30.13S
COLUMBIA       CLEAR     70  66  88 CALM      30.07R
SHELBYVILLE    CLEAR     70  64  83 SE5       30.11S
$$

TNZ017-018-042-046-047-301200-
NORTHEAST TENNESSEE

CITY           SKY/WX    TMP DP  RH WIND       PRES   REMARKS
TRI CITIES     PTCLDY    60  59  96 CALM      30.21R FOG
ELIZABETHTON   SUNNY     61  61 100 NE3       30.22R
$$

TNZ012-013-036-069-073-074-301200-
CENTRAL EAST TENNESSEE

CITY           SKY/WX    TMP DP  RH WIND       PRES   REMARKS
KNOXVILLE      FOG       62  62 100 CALM      30.17R VSB 1
OAK RIDGE      MOCLDY    68  65  90 CALM      30.18R
GATLINBURG     CLOUDY    61  61 100 CALM      30.18R
MORRISTOWN     SUNNY     63  63 100 CALM      30.20R
$$

TNZ083-085-099-301200-
SOUTHEAST TENNESSEE

CITY           SKY/WX    TMP DP  RH WIND       PRES   REMARKS
CHATTANOOGA    MOCLDY    68  66  93 CALM      30.15R FOG
$$

SKY/WX REPORTED AS FAIR MEANS FEW OR NO CLOUDS BELOW
12 THOUSAND FEET.



USA.gov is the U.S. government's official web portal to all federal, state and local government web resources and services.